Theta_e
307 306 304 305 306 307 306 304 306 309 317 319 317 315 325 330 330 328 329 331 331 334 338 338 340 340 338 338 338 340 341 343 343 342 341 342 342 345 343 345 346 346 347 346
304 302 307 310 309 308 305 304 304 309 314 318 314 314 325 328 328 329 329 330 331 332 335 338 337 337 338 338 338 340 341 342 344 344 344 345 344 345 345 347 348 348 348 349
301 305 311 309 306 305 302 301 304 305 313 314 312 309 319 326 328 328 329 331 331 331 332 336 336 337 338 339 339 340 341 342 343 345 347 347 347 347 347 345 343 348 349 350
302 307 308 305 304 305 299 307 308 309 306 302 309 298 308 318 322 325 326 326 330 334 336 337 337 337 337 338 342 343 342 343 344 344 345 346 345 343 348 350 353 351 350 347
303 302 303 303 306 308 303 309 307 307 303 301 304 299 300 311 314 320 324 327 333 335 333 335 335 338 340 344 342 344 345 344 346 345 346 344 344 346 350 352 352 352 351 351
303 304 302 303 306 307 308 304 302 299 296 293 295 299 299 307 311 316 325 328 330 332 334 333 333 337 340 343 341 339 342 341 347 346 347 346 345 349 349 348 346 346 348 349
297 299 302 305 300 303 302 297 292 293 292 292 296 299 301 310 315 317 323 326 329 331 331 331 330 333 335 335 333 332 333 333 336 340 341 347 350 349 345 345 344 343 343 344
292 292 300 303 302 299 298 297 292 289 289 292 299 297 305 316 322 324 329 325 326 328 330 331 332 335 333 336 335 335 331 329 336 338 338 341 344 342 340 339 339 337 339 341
290 292 301 303 304 304 297 297 300 293 292 294 298 306 313 318 322 324 324 325 324 326 329 332 338 337 333 334 337 338 334 332 336 338 339 336 336 335 334 334 334 333 334 334
294 290 296 301 302 302 299 303 297 295 292 291 297 301 302 311 317 321 322 324 327 331 331 332 337 336 334 333 335 336 332 335 337 337 334 332 330 330 330 329 328 329 330 330
294 293 294 297 296 297 296 296 296 297 296 293 293 299 308 312 319 320 323 325 327 332 334 335 330 331 331 331 332 335 336 335 333 331 329 327 326 326 326 325 325 325 325 324
297 292 289 295 299 300 297 297 298 293 293 296 296 298 314 317 323 324 325 328 331 332 332 330 332 333 334 334 334 334 334 332 328 327 324 324 323 322 322 321 321 321 320 321
297 290 288 291 294 295 295 298 296 297 299 298 296 298 315 318 319 323 323 327 328 330 330 328 328 328 328 329 329 329 327 326 325 323 321 319 318 318 318 319 319 319 319 319
306 289 291 291 293 296 298 302 301 299 297 296 298 300 311 314 317 321 321 326 327 326 326 325 325 324 325 327 326 324 323 323 321 319 318 317 316 316 317 318 318 318 318 317
296 292 291 294 296 299 299 304 302 299 299 301 303 305 310 314 318 320 321 326 326 324 324 323 322 323 324 323 321 320 319 318 317 316 315 315 316 317 318 318 318 318 318 317
294 292 293 294 300 304 302 304 302 304 304 305 305 306 313 317 321 321 326 326 325 324 324 322 323 323 321 318 317 317 316 315 315 314 314 315 316 317 318 317 317 317 316 316
295 296 295 291 301 302 298 304 304 305 307 307 304 308 317 316 319 321 326 328 326 325 324 322 322 322 319 317 316 314 314 314 313 314 315 315 315 316 316 316 314 313 312 312
294 297 294 293 297 292 301 309 310 309 311 310 312 313 318 319 321 322 329 329 327 328 323 322 320 318 316 316 314 314 313 313 312 313 313 314 315 314 314 312 310 310 310 309
296 297 295 295 294 298 306 308 310 307 307 315 314 316 320 321 320 320 330 330 328 323 321 321 320 316 315 314 313 312 311 311 311 311 312 313 313 312 312 311 310 309 308 308
297 297 298 296 294 294 303 308 314 314 302 319 322 321 320 320 313 314 327 322 320 320 319 316 316 315 313 312 312 310 309 310 311 313 313 313 313 311 310 310 310 309 308 307
293 296 294 296 296 300 307 312 314 302 303 321 325 322 322 319 318 321 320 318 318 317 314 315 316 313 312 311 310 308 309 310 312 313 315 315 314 312 311 310 310 309 308 307
295 293 294 297 295 296 311 313 308 311 316 326 328 326 322 316 318 319 317 313 312 311 313 314 313 312 312 311 309 308 309 312 313 313 312 312 313 313 312 310 310 309 308 307
299 296 296 301 301 306 311 313 315 318 324 327 328 326 320 315 315 317 312 311 311 311 311 313 313 311 311 311 310 309 311 311 311 312 311 310 310 311 310 309 309 307 308 306
308 309 304 305 306 310 312 316 317 323 327 329 328 321 319 315 315 312 311 309 309 309 309 310 311 311 310 311 311 311 312 312 311 310 310 310 308 308 308 308 308 308 308 307
310 309 306 305 309 312 316 318 321 324 325 323 323 321 316 314 312 311 309 308 308 307 308 311 311 310 308 308 309 310 311 311 310 309 308 307 307 306 305 307 308 309 310 308
311 308 306 305 309 308 311 319 322 322 321 321 317 314 315 314 310 309 308 307 307 306 306 307 306 306 306 306 307 308 309 309 307 306 305 305 306 303 304 305 306 305 305 303
Wind_Speed
3 5 5 6 5 5 3 5 8 6 8 9 11 6 14 14 13 13 12 10 10 13 11 6 6 6 6 7 8 9 9 7 6 3 2 1 4 2 1 2 6 11 8 6
5 5 4 5 6 5 6 5 4 4 5 10 7 4 11 15 19 15 13 13 12 6 2 2 4 4 6 8 9 8 9 7 7 4 2 1 2 1 3 3 8 7 10 9
7 5 5 4 3 3 3 3 0 3 5 5 6 3 5 9 8 10 7 7 4 4 6 7 11 5 3 5 6 8 7 6 4 4 3 2 1 1 3 3 3 8 9 11
5 5 5 1 1 4 5 5 4 4 4 4 3 5 6 5 11 11 8 6 9 13 11 11 8 3 3 5 5 6 5 2 1 4 4 4 3 3 3 3 3 3 6 6
8 4 4 3 4 5 7 2 3 3 5 5 3 4 5 1 8 15 10 8 10 12 12 11 15 7 2 5 4 2 4 5 5 5 4 4 5 5 3 4 5 5 3 2
6 3 1 6 3 5 6 4 7 4 3 2 3 4 6 4 5 3 4 8 13 14 11 5 12 8 5 8 11 13 17 15 8 11 8 6 7 3 3 3 4 4 3 3
4 3 3 3 2 4 7 7 5 5 5 6 3 4 8 7 5 6 10 10 9 6 6 9 5 6 4 7 10 11 12 7 7 13 23 11 3 5 4 5 4 5 5 5
6 8 6 4 7 6 5 8 7 3 2 4 1 3 7 1 3 4 6 8 6 5 7 6 2 6 6 7 7 10 11 12 7 13 16 14 6 6 6 8 6 5 5 5
6 6 5 3 4 7 3 3 5 8 3 4 4 6 9 2 2 3 6 8 7 5 8 8 5 4 3 2 8 11 10 13 13 20 5 7 8 10 7 8 6 5 6 7
6 2 3 5 3 2 4 5 3 3 4 3 4 5 7 7 7 3 4 4 4 2 6 5 5 6 4 1 5 8 8 16 14 10 5 5 8 8 7 7 8 7 7 8
7 5 6 2 3 7 1 1 6 6 4 7 4 8 7 10 7 7 3 5 5 3 5 5 6 6 6 4 2 9 9 11 12 8 8 6 6 7 7 7 7 7 7 8
8 7 5 11 5 3 3 7 7 7 5 2 2 8 3 4 7 6 6 6 6 7 6 7 6 7 5 5 8 9 8 11 9 8 9 6 7 8 8 7 5 7 7 7
9 1 1 10 8 2 4 5 4 5 4 8 8 8 3 5 6 6 8 8 8 8 7 7 5 8 10 9 10 11 9 9 10 10 6 7 8 6 4 4 5 6 6 7
11 5 8 10 10 5 4 5 5 5 5 7 7 4 6 6 8 6 7 8 10 8 6 6 7 8 10 9 9 9 9 9 7 5 4 4 2 1 2 5 5 6 5 6
6 9 8 7 7 5 5 5 7 8 2 7 9 11 9 14 12 9 8 7 10 10 9 8 7 8 9 9 8 7 6 6 5 6 6 5 3 3 4 6 6 6 6 5
3 3 7 5 5 7 3 1 6 5 4 3 7 5 3 10 8 9 10 10 10 10 9 9 9 10 10 9 7 6 6 6 5 5 3 2 4 5 5 5 6 6 7 8
4 6 4 8 3 6 1 9 7 4 5 7 7 9 10 9 12 15 13 13 12 10 9 11 11 10 9 8 6 6 5 5 5 4 3 2 4 5 5 5 7 8 9 7
7 6 3 3 3 3 9 1 2 3 3 6 3 7 8 11 6 7 8 11 12 11 11 10 10 9 9 7 7 7 5 4 4 2 1 2 3 4 5 7 6 6 5 7
2 6 4 6 4 4 2 5 8 9 7 5 8 11 10 12 8 4 7 6 9 10 11 11 11 11 10 9 7 7 4 3 4 4 3 3 3 4 4 5 5 4 4 5
6 7 5 3 6 8 10 4 7 4 3 8 12 16 17 9 4 5 9 9 11 12 13 14 13 11 10 7 7 7 6 5 4 3 3 3 4 4 3 3 3 2 2 4
3 3 6 3 4 6 7 3 3 8 12 12 15 16 14 7 4 10 14 10 12 13 15 13 12 11 9 7 6 7 6 5 2 2 2 3 2 3 1 3 2 3 4 4
7 7 5 2 4 2 7 5 10 9 3 15 13 9 10 8 12 17 16 15 16 16 14 13 11 10 7 7 7 7 6 3 2 3 4 4 3 2 2 4 4 4 4 4
4 6 4 8 9 3 7 6 2 4 14 10 15 13 12 16 10 15 16 16 15 16 12 10 11 9 5 5 6 7 4 3 3 3 3 3 3 3 3 4 5 4 3 3
5 4 3 3 3 5 6 1 4 3 9 16 15 19 14 17 15 15 14 14 13 11 11 8 10 8 6 4 5 5 4 3 4 3 1 2 3 4 3 3 3 4 4 5
3 3 4 6 8 3 3 4 4 7 13 16 14 16 20 20 16 14 15 13 12 11 8 8 8 7 6 4 4 3 3 3 3 1 2 3 3 4 4 3 4 4 5 5
6 7 6 7 4 2 6 5 10 17 17 19 23 15 10 17 19 17 13 11 12 11 7 6 6 7 5 4 4 3 2 3 2 2 1 1 2 2 3 3 5 8 12 14
Wind_Direction
19 85 213 184 155 158 175 211 236 251 217 173 199 172 185 190 209 215 211 223 220 216 227 219 214 187 181 187 192 196 188 192 161 151 172 188 225 200 41 144 224 259 259 240
30 211 182 147 155 165 192 230 261 282 295 176 153 192 195 191 213 215 205 208 216 231 112 44 227 212 203 199 203 199 204 182 192 184 122 140 120 155 244 183 222 232 265 261
174 217 162 142 122 34 218 246 215 269 360 41 107 336 196 218 211 222 216 214 168 139 105 43 4 354 309 260 234 210 208 195 175 142 125 131 115 210 227 188 219 235 225 240
229 232 210 205 118 136 310 209 252 143 118 219 177 258 239 230 216 231 219 186 125 126 138 106 102 352 260 221 208 223 215 112 120 202 182 173 181 219 236 243 242 205 204 223
236 174 134 141 203 168 239 288 277 325 144 100 274 86 274 122 228 224 218 155 145 145 166 164 151 158 312 290 215 114 158 194 178 199 222 212 202 233 286 273 288 4 5 356
207 318 159 176 180 184 252 25 34 52 95 53 303 122 284 209 227 276 185 172 168 174 184 93 49 85 53 15 69 66 59 23 17 33 305 233 234 257 311 354 30 7 352 4
355 235 251 157 12 350 74 60 341 354 18 213 299 78 243 269 298 243 213 169 173 165 85 53 97 113 95 100 105 94 89 98 42 15 357 297 323 43 48 36 44 33 28 16
154 322 180 173 168 184 182 154 153 248 234 280 314 231 254 234 332 341 104 125 129 132 94 100 164 132 145 168 179 129 127 65 75 57 357 321 36 64 55 45 36 38 30 30
130 264 279 224 134 143 168 175 185 107 14 71 288 293 299 286 64 69 106 141 141 160 127 138 180 126 157 244 261 194 122 110 69 60 331 334 34 49 49 41 41 28 22 24
198 347 241 269 111 41 152 156 75 12 137 223 288 273 241 257 236 159 179 116 127 138 129 148 135 155 118 171 293 38 53 88 84 85 64 22 31 40 39 36 39 26 28 27
136 120 279 87 167 192 53 29 54 114 116 158 170 261 217 213 189 189 187 99 121 82 39 105 108 88 94 109 3 66 66 81 85 78 64 29 27 36 41 41 33 27 29 25
197 155 192 219 237 174 152 209 151 121 230 140 157 266 309 190 140 163 115 118 82 77 75 93 89 91 92 83 78 96 76 79 80 73 61 40 38 29 27 27 30 32 30 27
178 239 263 327 348 74 195 187 140 112 87 190 143 257 3 100 138 132 136 122 118 112 116 104 100 101 95 85 82 82 84 85 66 59 56 41 37 28 16 18 33 33 31 27
123 136 167 215 208 179 199 180 167 139 136 169 220 218 237 190 171 144 131 131 124 124 134 119 100 92 82 78 84 84 78 79 91 105 104 82 70 71 26 30 29 32 26 27
118 190 171 227 209 185 243 194 176 208 192 160 219 191 214 189 178 153 143 128 125 127 135 132 120 104 95 89 79 83 91 103 88 64 52 34 350 32 38 28 19 16 15 10
6 232 165 236 178 188 239 204 181 174 152 265 124 255 166 125 116 132 149 158 148 153 153 137 128 117 116 113 105 94 82 72 75 75 68 8 17 23 34 29 20 12 8 12
132 130 111 241 180 118 331 218 198 169 178 147 169 215 154 141 158 170 162 165 168 164 148 143 137 131 122 119 128 111 96 81 80 79 45 11 30 33 30 38 25 19 21 15
139 120 107 171 102 179 239 8 123 134 153 170 117 145 158 156 110 121 157 161 163 155 147 138 129 121 121 128 111 100 93 98 97 112 50 30 71 54 45 45 30 24 15 12
134 122 108 136 172 260 310 206 163 168 232 177 129 128 113 116 84 68 154 152 156 144 142 135 133 134 134 124 116 110 121 153 171 164 119 94 83 59 44 37 17 16 11 8
87 76 111 147 145 185 228 220 166 101 282 173 140 148 143 144 125 215 153 122 120 128 132 132 133 131 123 135 134 138 166 178 156 125 147 124 88 76 43 6 1 15 14 358
60 49 176 183 176 280 246 185 156 123 231 160 151 160 156 160 181 139 123 108 125 130 126 125 129 131 133 135 142 155 166 144 138 87 113 90 79 74 13 350 352 350 354 351
179 154 191 117 90 184 150 70 172 198 149 144 150 159 133 108 120 124 124 127 127 126 126 125 125 133 151 162 160 148 127 147 91 80 65 43 31 13 353 338 326 336 339 336
262 175 194 183 208 279 226 191 224 179 143 157 147 145 140 129 122 132 133 133 135 130 128 130 132 137 160 163 141 122 146 116 87 91 58 21 352 337 342 334 326 325 319 309
222 169 189 10 290 263 280 335 160 242 138 149 143 139 144 130 132 131 128 126 123 128 131 129 133 143 148 142 115 137 149 121 96 98 22 322 318 316 316 296 287 289 297 303
233 121 176 264 274 275 214 244 139 96 106 110 118 141 137 131 131 134 128 133 135 130 127 136 146 146 132 126 132 153 151 123 97 66 359 346 341 329 316 284 262 275 266 227
188 184 170 233 231 156 268 161 148 139 142 137 125 116 123 136 135 135 131 131 133 133 131 128 125 121 141 146 179 189 132 123 114 52 42 312 324 329 320 329 323 239 254 289